Zurück zum Katalog

STARLINK-36406

AktivKommunikationVLEO
NORAD 67923·PAYLOAD·🇺🇸 United States

Gestartet Feb 22, 2026 von Vandenberg Space Force Base

Loading…

Nächste Überflüge (nächste 24 Stunden)

TLE

AktuellSource: CelesTrak SupGP

Epoche: Sep 14, 2026, 14:53 UTC

1 67923C 26036V   26257.62062500 -.00011101  00000+0 -40214-3 0  2573
2 67923  43.0000 258.4873 0001448 271.2425 119.2320 15.27579467    15

Verfolge STARLINK-36406 in Echtzeit mit AllMySat

Download on the App Store